CZ-6A DEB, 56662

Orbit data source: Space-Track

CZ-6A DEB, 56662 is space debris in SSO originally from a launch on Fri, 11 Nov 2022 UTC launched from the Taiyaun Space Center, China (TSC). Debris objects in space refer to the collection of defunct objects orbiting the Earth. Examples of debris include non-operational satellites, rocket bodies, and fragments generated from explosions, collisions, or faulty payload assembly.

Loading next visibility...
Identifier
56662, 2022-151AGN
Orbit
SSO
Country
Flag of CNCN / PRC
Related business
Manufacturer
SAST
Mission
Spacecraft
Bus & Motor
Unknown
Mass
Unknown
Launch date (UTC)
2022-11-11 (3 years ago)
Launch vehicle
Unknown
Launch site
Taiyaun Space Center, China (TSC)
Object type
Payload
Rocket body
Debris
Shape & HBR
Unknown shape, 0.1 m
Radar Cross Section
Small (<0.1 m²)

Expand to show TLE details & history
Last TLE update: 8 hours ago

TLE from 8 hours ago
0 CZ-6A DEB
1 56662U 22151AGN 26130.22890321  .00000282  00000-0  18059-3 0  9993
2 56662  98.8449 129.1073 0068479 122.8546 237.9241 14.09853821161506
Epoch: 2026-05-10T05:29Z
TLE epoch observation values (Epoch: 2026-05-10T05:29:37.237Z)
Latitude
-0.00001°
Longitude
178.66716°
Altitude
889.337 km
Speed
7.394 km/s
True Right ascension
08h 36m 25s
True Declination
0° 00' 00"
Sunlit
Object was in daylight at epoch
Visualization orbit readout
Latitude
Unknown
Longitude
Unknown
Altitude
Unknown
Speed
Unknown
Apparent Right ascension
Unknown
Apparent Declination
Unknown
Sunlit
N/A
Visualization observer readout
Local Sidereal Time
21:27:34
Azimuth
Unknown
Elevation
Unknown
Doppler factor
Unknown
Orbital elements
Apogee altitude
906.596 km
Perigee altitude
807.505 km
Semi-major axis
7,235.187 km
Eccentricity
0.00685
Inclination
98.8449°
RAAN
129.1073°
Arg. of periapsis
122.8546°
True anomaly
237.2622°
Mean anomaly
237.9241°
Eccentric anomaly
237.59285°
Mean motion
3.5267 °/min
Orbital period
102.08 mins
BSTAR
0.00018059
Loading maneuver chart data...
Computing Atmospheric mass density...
Loading historical data...
Loading historical data...
Loading historical data...
Loading historical data...
Loading historical data...
Loading historical data...
Loading historical data...

Documentation

Showing up to 5 results
|